Regional Weather Roundup
Issued by NWS Albany, NY

Current Version | Previous Version | Text Only | Print | Product List | Glossary On
Versions: 1 2 3 4 5 6 7 8 9 10 11 12 13 14 15 16 17 18 19 20 21 22 23 24 25 26 27
000
ASUS41 KALY 240810
RWRALY

NEW YORK STATE HOURLY WEATHER ROUNDUP
NATIONAL WEATHER SERVICE ALBANY NY
400 AM EDT THU AUG 24 2017

NOTE: "FAIR" INDICATES FEW OR NO CLOUDS BELOW 12,000 FEET WITH NO
SIGNIFICANT WEATHER AND/OR NO OBSTRUCTIONS TO VISIBILITY.

NYZ032-033-038>043-046>054-057>066-NYZ062>081-082-084-240900-
EAST


CITY           SKY/WX    TMP DP  RH WIND       PRES   REMARKS
ALBANY         MOCLDY    59  53  80 CALM      29.90R
GLENS FALLS    MOCLDY    55  53  93 CALM      29.88R
POUGHKEEPSIE   CLEAR     56  54  93 CALM      29.89R
NEWBURGH       CLEAR     59  57  94 CALM      29.90S
MONTGOMERY     CLEAR     56  54  93 S3        29.90S
WHITE PLAINS   PTCLDY    62  58  86 NW5       29.88S
ISLIP          CLEAR     61  60  97 NW5       29.87S
NEW YORK CITY  CLEAR     72  58  61 NW3       29.87S
CENTRAL PARK   CLEAR     67  55  65 NW3       29.91R
$$

NYZ005>009-017-018-044>046-055-056-240900-
CENTRAL


CITY           SKY/WX    TMP DP  RH WIND       PRES   REMARKS
FULTON         CLEAR     53  51  93 SW5       29.93R
SYRACUSE       MOCLDY    58  56  93 SW7       29.93R
ROME           CLEAR     57  56  96 CALM      29.93R
ELMIRA         CLEAR     55  50  83 SW5       29.96S
BINGHAMTON     PTCLDY    56  53  90 NW6       29.95S
MONTICELLO     CLEAR     52  50  93 CALM      29.95S
$$

NYZ026>034-041>043-087-240900-
NORTH


CITY           SKY/WX    TMP DP  RH WIND       PRES   REMARKS
WATERTOWN      CLEAR     51  51 100 CALM      29.90R
FORT DRUM      NOT AVBL
OGDENSBURG     MOCLDY    57  56  95 NW3       29.88R
MASSENA        CLOUDY    57  56  96 SW6       29.87R
SARANAC LAKE   MOCLDY    52  52 100 SW7       29.89R
PLATTSBURGH    CLEAR     59  53  80 CALM      29.84R
$$

NYZ001>004-010>016-019>021-085-240900-
WEST


CITY           SKY/WX    TMP DP  RH WIND       PRES   REMARKS
NIAGARA FALLS  CLEAR     54  48  80 W7        29.97R
BUFFALO        CLEAR     57  50  77 W7        29.98R
DUNKIRK        CLOUDY    62  51  67 NW8       29.99S
JAMESTOWN      CLOUDY    55  50  82 N3        30.01S
WELLSVILLE     CLEAR     53  49  86 W6        30.01S
ROCHESTER      CLEAR     53  51  93 W5        29.96R
PENN YAN       CLEAR     56  50  80 SW5       29.97R
$$

             KEY
       WCI = WIND CHILL INDEX
       VSB = VISIBILITY
       HX  = HEAT INDEX
$$




USA.gov is the U.S. government's official web portal to all federal, state and local government web resources and services.